TimeCST,TemperatureF,Dew PointF,Humidity,Sea Level PressureIn,VisibilityMPH,Wind Direction,Wind SpeedMPH,Gust SpeedMPH,PrecipitationIn,Events,Conditions,WindDirDegrees,DateUTC
12:15 AM,28.4,24.8,86,30.59,10.0,North,3.5,-,N/A,,Clear,360,2013-11-13 06:15:00
12:35 AM,28.4,24.8,86,30.59,10.0,North,3.5,-,N/A,,Clear,10,2013-11-13 06:35:00
12:55 AM,28.4,24.8,86,30.59,10.0,North,3.5,-,N/A,,Clear,350,2013-11-13 06:55:00
1:15 AM,28.4,24.8,86,30.59,10.0,North,3.5,-,N/A,,Clear,360,2013-11-13 07:15:00
1:35 AM,26.6,24.8,93,30.59,10.0,North,3.5,-,N/A,,Clear,360,2013-11-13 07:35:00
1:55 AM,26.6,24.8,93,30.58,10.0,North,3.5,-,N/A,,Clear,10,2013-11-13 07:55:00
2:15 AM,26.6,26.6,100,30.59,10.0,Calm,Calm,-,N/A,,Clear,0,2013-11-13 08:15:00
2:35 AM,26.6,26.6,100,30.59,10.0,Calm,Calm,-,N/A,,Clear,0,2013-11-13 08:35:00
2:55 AM,26.6,24.8,93,30.58,10.0,Calm,Calm,-,N/A,,Clear,0,2013-11-13 08:55:00
3:15 AM,24.8,24.8,100,30.59,10.0,Calm,Calm,-,N/A,,Clear,0,2013-11-13 09:15:00
3:35 AM,24.8,24.8,100,30.59,10.0,Calm,Calm,-,N/A,,Clear,0,2013-11-13 09:35:00
3:55 AM,24.8,24.8,100,30.59,10.0,North,3.5,-,N/A,,Clear,350,2013-11-13 09:55:00
4:15 AM,24.8,24.8,100,30.61,10.0,Calm,Calm,-,N/A,,Clear,0,2013-11-13 10:15:00
4:35 AM,24.8,24.8,100,30.61,10.0,NNW,3.5,-,N/A,,Clear,340,2013-11-13 10:35:00
4:55 AM,24.8,24.8,100,30.63,10.0,North,3.5,-,N/A,,Clear,360,2013-11-13 10:55:00
5:15 AM,24.8,24.8,100,30.63,10.0,North,3.5,-,N/A,,Clear,10,2013-11-13 11:15:00
5:35 AM,23.0,23.0,100,30.63,10.0,Calm,Calm,-,N/A,,Clear,0,2013-11-13 11:35:00
5:55 AM,23.0,23.0,100,30.64,10.0,Calm,Calm,-,N/A,,Clear,0,2013-11-13 11:55:00
6:15 AM,23.0,23.0,100,30.64,10.0,Calm,Calm,-,N/A,,Clear,0,2013-11-13 12:15:00
6:35 AM,23.0,23.0,100,30.66,10.0,Calm,Calm,-,N/A,,Clear,0,2013-11-13 12:35:00
6:55 AM,24.8,24.8,100,30.67,10.0,Calm,Calm,-,N/A,,Clear,0,2013-11-13 12:55:00
7:15 AM,24.8,24.8,100,30.67,10.0,Calm,Calm,-,N/A,,Clear,0,2013-11-13 13:15:00
7:35 AM,26.6,26.6,100,30.68,10.0,North,3.5,-,N/A,,Clear,10,2013-11-13 13:35:00
7:55 AM,28.4,28.4,100,30.68,10.0,North,3.5,-,N/A,,Clear,360,2013-11-13 13:55:00
8:15 AM,30.2,30.2,100,30.68,10.0,NE,4.6,-,N/A,,Clear,50,2013-11-13 14:15:00
8:35 AM,32.0,30.2,93,30.67,10.0,NE,4.6,-,N/A,,Clear,50,2013-11-13 14:35:00
8:55 AM,33.8,28.4,81,30.66,10.0,NE,6.9,-,N/A,,Clear,40,2013-11-13 14:55:00
9:15 AM,35.6,24.8,65,30.66,10.0,ENE,10.4,-,N/A,,Clear,70,2013-11-13 15:15:00
9:35 AM,35.6,23.0,60,30.66,10.0,East,8.1,-,N/A,,Clear,90,2013-11-13 15:35:00
9:55 AM,37.4,23.0,56,30.65,10.0,ENE,6.9,-,N/A,,Clear,60,2013-11-13 15:55:00
10:15 AM,37.4,21.2,52,30.65,10.0,ENE,8.1,-,N/A,,Clear,70,2013-11-13 16:15:00
10:35 AM,39.2,21.2,49,30.63,10.0,ESE,8.1,-,N/A,,Clear,110,2013-11-13 16:35:00
10:55 AM,39.2,21.2,49,30.62,10.0,East,6.9,-,N/A,,Clear,90,2013-11-13 16:55:00
11:15 AM,41.0,21.2,45,30.61,10.0,Variable,5.8,-,N/A,,Clear,0,2013-11-13 17:15:00
11:35 AM,42.8,21.2,42,30.59,10.0,Variable,3.5,-,N/A,,Clear,0,2013-11-13 17:35:00
11:55 AM,42.8,21.2,42,30.58,10.0,East,3.5,-,N/A,,Clear,80,2013-11-13 17:55:00
12:15 PM,42.8,19.4,39,30.57,10.0,Calm,Calm,-,N/A,,Clear,0,2013-11-13 18:15:00
12:35 PM,42.8,19.4,39,30.56,10.0,Calm,Calm,-,N/A,,Clear,0,2013-11-13 18:35:00
12:55 PM,44.6,17.6,34,30.55,10.0,NNE,8.1,-,N/A,,Clear,30,2013-11-13 18:55:00
1:15 PM,44.6,19.4,37,30.55,10.0,Variable,3.5,-,N/A,,Clear,0,2013-11-13 19:15:00
1:35 PM,44.6,19.4,37,30.54,10.0,Variable,4.6,-,N/A,,Clear,0,2013-11-13 19:35:00
1:55 PM,44.6,19.4,37,30.53,10.0,NE,5.8,-,N/A,,Clear,40,2013-11-13 19:55:00
2:15 PM,44.6,19.4,37,30.52,10.0,NE,3.5,-,N/A,,Clear,40,2013-11-13 20:15:00
2:35 PM,44.6,19.4,37,30.51,10.0,NE,5.8,-,N/A,,Clear,40,2013-11-13 20:35:00
2:55 PM,44.6,17.6,34,30.51,10.0,Variable,3.5,-,N/A,,Clear,0,2013-11-13 20:55:00
3:15 PM,44.6,17.6,34,30.50,10.0,ENE,3.5,-,N/A,,Clear,70,2013-11-13 21:15:00
3:35 PM,44.6,17.6,34,30.50,10.0,ENE,3.5,-,N/A,,Clear,70,2013-11-13 21:35:00
3:55 PM,44.6,17.6,34,30.50,10.0,North,3.5,-,N/A,,Clear,10,2013-11-13 21:55:00
4:15 PM,44.6,17.6,34,30.49,10.0,Calm,Calm,-,N/A,,Clear,0,2013-11-13 22:15:00
4:35 PM,42.8,17.6,36,30.49,10.0,North,3.5,-,N/A,,Clear,360,2013-11-13 22:35:00
4:55 PM,42.8,17.6,36,30.48,10.0,Calm,Calm,-,N/A,,Clear,0,2013-11-13 22:55:00
5:15 PM,37.4,19.4,48,30.48,10.0,Calm,Calm,-,N/A,,Clear,0,2013-11-13 23:15:00
5:35 PM,35.6,19.4,52,30.48,10.0,Calm,Calm,-,N/A,,Clear,0,2013-11-13 23:35:00
5:55 PM,33.8,21.2,60,30.48,10.0,Calm,Calm,-,N/A,,Clear,0,2013-11-13 23:55:00
6:15 PM,33.8,23.0,65,30.48,10.0,Calm,Calm,-,N/A,,Clear,0,2013-11-14 00:15:00
6:35 PM,33.8,24.8,70,30.48,10.0,Calm,Calm,-,N/A,,Clear,0,2013-11-14 00:35:00
6:55 PM,28.4,24.8,86,30.48,10.0,SSW,3.5,-,N/A,,Clear,210,2013-11-14 00:55:00
7:15 PM,30.2,23.0,75,30.48,10.0,South,3.5,-,N/A,,Clear,180,2013-11-14 01:15:00
7:35 PM,30.2,26.6,86,30.48,10.0,Calm,Calm,-,N/A,,Clear,0,2013-11-14 01:35:00
7:55 PM,28.4,26.6,93,30.48,10.0,Calm,Calm,-,N/A,,Clear,0,2013-11-14 01:55:00
8:15 PM,28.4,26.6,93,30.47,10.0,Calm,Calm,-,N/A,,Clear,0,2013-11-14 02:15:00
8:35 PM,28.4,26.6,93,30.46,10.0,Calm,Calm,-,N/A,,Clear,0,2013-11-14 02:35:00
8:55 PM,26.6,26.6,100,30.47,10.0,SSW,4.6,-,N/A,,Clear,210,2013-11-14 02:55:00
9:15 PM,26.6,26.6,100,30.46,10.0,South,3.5,-,N/A,,Clear,170,2013-11-14 03:15:00
9:35 PM,26.6,26.6,100,30.45,10.0,Calm,Calm,-,N/A,,Clear,0,2013-11-14 03:35:00
9:55 PM,26.6,26.6,100,30.46,10.0,Calm,Calm,-,N/A,,Clear,0,2013-11-14 03:55:00
10:15 PM,26.6,26.6,100,30.45,10.0,Calm,Calm,-,N/A,,Clear,0,2013-11-14 04:15:00
10:35 PM,26.6,24.8,93,30.44,10.0,Calm,Calm,-,N/A,,Clear,0,2013-11-14 04:35:00
10:55 PM,26.6,24.8,93,30.44,10.0,Calm,Calm,-,N/A,,Clear,0,2013-11-14 04:55:00
11:35 PM,23.0,23.0,100,30.43,10.0,Calm,Calm,-,N/A,,Clear,0,2013-11-14 05:35:00
11:55 PM,24.8,24.8,100,30.43,10.0,Calm,Calm,-,N/A,,Clear,0,2013-11-14 05:55:00